Tracking 18980 objects as of 18-Feb-2018
HD Live streaming from Space Station
objects crossing your sky now

ANIK A2 (TELESAT 2)

Track ANIK A2 (TELESAT 2) now!
ANIK A2 (TELESAT 2) is classified as:


NORAD ID: 6437
Int'l Code: 1973-023A
Perigee: 35,857.0 km
Apogee: 35,992.2 km
Inclination: 13.2 °
Period: 1,442.8 minutes
Semi major axis: 42295 km
RCS: 3.1458 m2 (large)
Launch date: April 20, 1973
Source: Canada (CA)
Launch site: AIR FORCE EASTERN TEST RANGE (AFETR)
aabbcc
Your satellite tracking list
Your tracking list is empty




NASA's NSSDC Master Catalog

Two Line Element Set (TLE):
1  6437U 73023A   18047.79539479 -.00000171 +00000-0 +00000-0 0  9998
2  6437 013.2468 327.1615 0015985 343.8448 287.0200 00.99806761016780
Source of the keplerian elements: AFSPC